Tracking 19817 objects as of 19-Aug-2019
HD Live streaming from Space Station
objects crossing your sky now

COSMOS 2251 DEB

Track COSMOS 2251 DEB now!
10-day predictions


NORAD ID: 35890
Int'l Code: 1993-036AUD
Perigee: 730.3 km
Apogee: 841.4 km
Inclination: 73.9 °
Period: 100.4 minutes
Semi major axis: 7156 km
RCS: 0.0103 m2 (small)
Launch date: June 16, 1993
Source: Commonwealth of Independent States (former USSR) (CIS)
Launch site: PLESETSK MISSILE AND SPACE COMPLEX (PKMTR)

Note: This is SATELLITE DEBRIS
aabbcc
Your satellite tracking list
Your tracking list is empty




NASA's NSSDC Master Catalog

Two Line Element Set (TLE):
1 35890U 93036AUD 19228.63910100 +.00000439 +00000-0 +16144-3 0  9993
2 35890 073.9438 216.4608 0077642 131.5969 229.1872 14.33906003318976
Source of the keplerian elements: AFSPC